owner,sensor,date,latitude,longitude,vertical_datum,wind_speed,wind_to_direction,wind_speed_of_gust,qcFlag 
TCOON,ioos:station:TCOON:518:1,2017-10-01T00:00:00Z,29.5150,-94.5133,0.0,0.2,208.0,0.4,'11111222,11111222,11111222' 
TCOON,ioos:station:TCOON:518:1,2017-10-01T00:06:00Z,29.5150,-94.5133,0.0,0.3,219.0,0.6,'11111222,11111222,11111222' 
TCOON,ioos:station:TCOON:518:1,2017-10-01T00:12:00Z,29.5150,-94.5133,0.0,0.1,198.0,0.5,'11111222,11111222,11111222' 
TCOON,ioos:station:TCOON:518:1,2017-10-01T00:18:00Z,29.5150,-94.5133,0.0,0.1,198.0,0.5,'1111122,1111122,1111122' 
TCOON,ioos:station:TCOON:518:1,2017-10-01T00:24:00Z,29.5150,-94.5133,0.0,0.5,202.0,0.5,'11111222,11111222,11111222' 
TCOON,ioos:station:TCOON:518:1,2017-10-01T00:30:00Z,29.5150,-94.5133,0.0,0.1,202.0,0.5,'11111222,11111222,11111222' 
TCOON,ioos:station:TCOON:518:1,2017-10-01T00:36:00Z,29.5150,-94.5133,0.0,0.2,202.0,0.3,'11111222,11111222,11111222' 
TCOON,ioos:station:TCOON:518:1,2017-10-01T00:42:00Z,29.5150,-94.5133,0.0,0.5,202.0,0.5,'11111222,11111222,11111222' 
TCOON,ioos:station:TCOON:518:1,2017-10-01T00:48:00Z,29.5150,-94.5133,0.0,0.0,202.0,0.4,'11111222,11111222,11111222' 
TCOON,ioos:station:TCOON:518:1,2017-10-01T00:54:00Z,29.5150,-94.5133,0.0,0.0,202.0,0.0,'11111222,11111222,11111222' 
TCOON,ioos:station:TCOON:518:1,2017-10-01T01:00:00Z,29.5150,-94.5133,0.0,0.0,202.0,0.0,'11111222,11111222,11111222' 
TCOON,ioos:station:TCOON:518:1,2017-10-01T01:06:00Z,29.5150,-94.5133,0.0,0.0,202.0,0.0,'11111222,11111222,11111222' 
TCOON,ioos:station:TCOON:518:1,2017-10-01T01:12:00Z,29.5150,-94.5133,0.0,0.0,202.0,0.1,'11111222,11111222,11111222' 
TCOON,ioos:station:TCOON:518:1,2017-10-01T01:18:00Z,29.5150,-94.5133,0.0,0.0,202.0,0.1,'1114422,1111122,1111122' 
TCOON,ioos:station:TCOON:518:1,2017-10-01T01:24:00Z,29.5150,-94.5133,0.0,1.6,1.0,1.9,'11111222,11111222,11111222' 
TCOON,ioos:station:TCOON:518:1,2017-10-01T01:30:00Z,29.5150,-94.5133,0.0,2.2,3.0,2.9,'11111222,11111222,11111222' 
TCOON,ioos:station:TCOON:518:1,2017-10-01T01:36:00Z,29.5150,-94.5133,0.0,2.2,5.0,2.7,'11111222,11111222,11111222' 
TCOON,ioos:station:TCOON:518:1,2017-10-01T01:42:00Z,29.5150,-94.5133,0.0,2.0,17.0,2.3,'11111222,11111222,11111222' 
TCOON,ioos:station:TCOON:518:1,2017-10-01T01:48:00Z,29.5150,-94.5133,0.0,2.7,31.0,3.0,'11111222,11111222,11111222' 
TCOON,ioos:station:TCOON:518:1,2017-10-01T01:54:00Z,29.5150,-94.5133,0.0,2.8,36.0,3.2,'11111222,11111222,11111222' 
TCOON,ioos:station:TCOON:518:1,2017-10-01T02:00:00Z,29.5150,-94.5133,0.0,3.4,33.0,3.6,'11111222,11111222,11111222' 
TCOON,ioos:station:TCOON:518:1,2017-10-01T02:06:00Z,29.5150,-94.5133,0.0,2.6,33.0,3.7,'11111222,11111222,11111222' 
TCOON,ioos:station:TCOON:518:1,2017-10-01T02:12:00Z,29.5150,-94.5133,0.0,3.0,29.0,3.6,'11111222,11111222,11111222' 
TCOON,ioos:station:TCOON:518:1,2017-10-01T02:18:00Z,29.5150,-94.5133,0.0,3.0,29.0,3.6,'1111122,1111122,1111122' 
TCOON,ioos:station:TCOON:518:1,2017-10-01T02:24:00Z,29.5150,-94.5133,0.0,3.1,22.0,3.7,'11111222,11111222,11111222' 
TCOON,ioos:station:TCOON:518:1,2017-10-01T02:30:00Z,29.5150,-94.5133,0.0,3.3,22.0,3.8,'11111222,11111222,11111222' 
TCOON,ioos:station:TCOON:518:1,2017-10-01T02:36:00Z,29.5150,-94.5133,0.0,3.3,27.0,4.1,'11111222,11111222,11111222' 
TCOON,ioos:station:TCOON:518:1,2017-10-01T02:42:00Z,29.5150,-94.5133,0.0,3.6,22.0,4.2,'11111222,11111222,11111222' 
TCOON,ioos:station:TCOON:518:1,2017-10-01T02:48:00Z,29.5150,-94.5133,0.0,4.5,13.0,5.1,'11111222,11111222,11111222' 
TCOON,ioos:station:TCOON:518:1,2017-10-01T02:54:00Z,29.5150,-94.5133,0.0,4.7,16.0,5.4,'11111222,11111222,11111222' 
TCOON,ioos:station:TCOON:518:1,2017-10-01T03:00:00Z,29.5150,-94.5133,0.0,4.3,23.0,5.2,'11111222,11111222,11111222' 
TCOON,ioos:station:TCOON:518:1,2017-10-01T03:06:00Z,29.5150,-94.5133,0.0,4.8,18.0,5.4,'11111222,11111222,11111222' 
TCOON,ioos:station:TCOON:518:1,2017-10-01T03:12:00Z,29.5150,-94.5133,0.0,4.1,21.0,4.9,'11111222,11111222,11111222' 
TCOON,ioos:station:TCOON:518:1,2017-10-01T03:18:00Z,29.5150,-94.5133,0.0,4.1,21.0,4.9,'1111122,1111122,1111122' 
TCOON,ioos:station:TCOON:518:1,2017-10-01T03:24:00Z,29.5150,-94.5133,0.0,3.0,26.0,3.7,'11111222,11111222,11111222' 
TCOON,ioos:station:TCOON:518:1,2017-10-01T03:30:00Z,29.5150,-94.5133,0.0,2.7,27.0,3.7,'11111222,11111222,11111222' 
TCOON,ioos:station:TCOON:518:1,2017-10-01T03:36:00Z,29.5150,-94.5133,0.0,2.7,25.0,3.2,'11111222,11111222,11111222' 
TCOON,ioos:station:TCOON:518:1,2017-10-01T03:42:00Z,29.5150,-94.5133,0.0,2.8,22.0,3.8,'11111222,11111222,11111222' 
TCOON,ioos:station:TCOON:518:1,2017-10-01T03:48:00Z,29.5150,-94.5133,0.0,3.4,26.0,4.1,'11111222,11111222,11111222' 
TCOON,ioos:station:TCOON:518:1,2017-10-01T03:54:00Z,29.5150,-94.5133,0.0,3.8,19.0,4.4,'11111222,11111222,11111222' 
TCOON,ioos:station:TCOON:518:1,2017-10-01T04:00:00Z,29.5150,-94.5133,0.0,3.5,19.0,4.3,'11111222,11111222,11111222' 
TCOON,ioos:station:TCOON:518:1,2017-10-01T04:06:00Z,29.5150,-94.5133,0.0,3.3,15.0,4.4,'11111222,11111222,11111222' 
TCOON,ioos:station:TCOON:518:1,2017-10-01T04:12:00Z,29.5150,-94.5133,0.0,3.3,15.0,4.2,'11111222,11111222,11111222' 
TCOON,ioos:station:TCOON:518:1,2017-10-01T04:18:00Z,29.5150,-94.5133,0.0,3.3,15.0,4.2,'1111122,1111122,1111122' 
TCOON,ioos:station:TCOON:518:1,2017-10-01T04:24:00Z,29.5150,-94.5133,0.0,3.3,17.0,4.3,'11111222,11111222,11111222' 
TCOON,ioos:station:TCOON:518:1,2017-10-01T04:30:00Z,29.5150,-94.5133,0.0,3.7,15.0,4.3,'11111222,11111222,11111222' 
TCOON,ioos:station:TCOON:518:1,2017-10-01T04:36:00Z,29.5150,-94.5133,0.0,3.8,22.0,4.5,'11111222,11111222,11111222' 
TCOON,ioos:station:TCOON:518:1,2017-10-01T04:42:00Z,29.5150,-94.5133,0.0,3.9,25.0,4.5,'11111222,11111222,11111222' 
TCOON,ioos:station:TCOON:518:1,2017-10-01T04:48:00Z,29.5150,-94.5133,0.0,4.2,24.0,5.0,'11111222,11111222,11111222' 
TCOON,ioos:station:TCOON:518:1,2017-10-01T04:54:00Z,29.5150,-94.5133,0.0,3.9,20.0,4.9,'11111222,11111222,11111222' 
TCOON,ioos:station:TCOON:518:1,2017-10-01T05:00:00Z,29.5150,-94.5133,0.0,4.0,22.0,4.7,'11111222,11111222,11111222' 
TCOON,ioos:station:TCOON:518:1,2017-10-01T05:06:00Z,29.5150,-94.5133,0.0,3.8,18.0,4.5,'11111222,11111222,11111222' 
TCOON,ioos:station:TCOON:518:1,2017-10-01T05:12:00Z,29.5150,-94.5133,0.0,3.7,16.0,4.9,'11111222,11111222,11111222' 
TCOON,ioos:station:TCOON:518:1,2017-10-01T05:18:00Z,29.5150,-94.5133,0.0,3.8,14.0,4.5,'11111222,11111222,11111222' 
TCOON,ioos:station:TCOON:518:1,2017-10-01T05:24:00Z,29.5150,-94.5133,0.0,3.8,14.0,4.5,'1111122,1111122,1111122' 
TCOON,ioos:station:TCOON:518:1,2017-10-01T05:30:00Z,29.5150,-94.5133,0.0,4.3,15.0,5.1,'11111222,11111222,11111222' 
TCOON,ioos:station:TCOON:518:1,2017-10-01T05:36:00Z,29.5150,-94.5133,0.0,4.5,18.0,5.1,'11111222,11111222,11111222' 
TCOON,ioos:station:TCOON:518:1,2017-10-01T05:42:00Z,29.5150,-94.5133,0.0,4.7,22.0,5.4,'11111222,11111222,11111222' 
TCOON,ioos:station:TCOON:518:1,2017-10-01T05:48:00Z,29.5150,-94.5133,0.0,4.3,25.0,5.9,'11111222,11111222,11111222' 
TCOON,ioos:station:TCOON:518:1,2017-10-01T05:54:00Z,29.5150,-94.5133,0.0,4.4,22.0,5.3,'11111222,11111222,11111222' 
TCOON,ioos:station:TCOON:518:1,2017-10-01T06:00:00Z,29.5150,-94.5133,0.0,4.3,23.0,5.9,'11111222,11111222,11111222' 
TCOON,ioos:station:TCOON:518:1,2017-10-01T06:06:00Z,29.5150,-94.5133,0.0,4.5,20.0,5.1,'11111222,11111222,11111222' 
TCOON,ioos:station:TCOON:518:1,2017-10-01T06:12:00Z,29.5150,-94.5133,0.0,4.0,28.0,4.9,'11111222,11111222,11111222' 
TCOON,ioos:station:TCOON:518:1,2017-10-01T06:18:00Z,29.5150,-94.5133,0.0,4.0,28.0,4.9,'1111122,1111122,1111122' 
TCOON,ioos:station:TCOON:518:1,2017-10-01T06:24:00Z,29.5150,-94.5133,0.0,4.6,37.0,5.3,'11111222,11111222,11111222' 
TCOON,ioos:station:TCOON:518:1,2017-10-01T06:30:00Z,29.5150,-94.5133,0.0,4.3,35.0,5.3,'11111222,11111222,11111222' 
TCOON,ioos:station:TCOON:518:1,2017-10-01T06:36:00Z,29.5150,-94.5133,0.0,5.1,38.0,5.6,'11111222,11111222,11111222' 
TCOON,ioos:station:TCOON:518:1,2017-10-01T06:42:00Z,29.5150,-94.5133,0.0,4.6,34.0,5.5,'11111222,11111222,11111222' 
TCOON,ioos:station:TCOON:518:1,2017-10-01T06:48:00Z,29.5150,-94.5133,0.0,4.5,40.0,5.5,'11111222,11111222,11111222' 
TCOON,ioos:station:TCOON:518:1,2017-10-01T06:54:00Z,29.5150,-94.5133,0.0,5.1,44.0,5.8,'11111222,11111222,11111222' 
TCOON,ioos:station:TCOON:518:1,2017-10-01T07:00:00Z,29.5150,-94.5133,0.0,5.0,43.0,6.0,'11111222,11111222,11111222' 
TCOON,ioos:station:TCOON:518:1,2017-10-01T07:06:00Z,29.5150,-94.5133,0.0,4.7,46.0,5.7,'11111222,11111222,11111222' 
TCOON,ioos:station:TCOON:518:1,2017-10-01T07:12:00Z,29.5150,-94.5133,0.0,5.1,45.0,5.9,'11111222,11111222,11111222' 
TCOON,ioos:station:TCOON:518:1,2017-10-01T07:18:00Z,29.5150,-94.5133,0.0,5.1,45.0,5.9,'1111122,1111122,1111122' 
TCOON,ioos:station:TCOON:518:1,2017-10-01T07:24:00Z,29.5150,-94.5133,0.0,4.8,50.0,5.4,'11111222,11111222,11111222' 
TCOON,ioos:station:TCOON:518:1,2017-10-01T07:30:00Z,29.5150,-94.5133,0.0,4.6,55.0,5.6,'11111222,11111222,11111222' 
TCOON,ioos:station:TCOON:518:1,2017-10-01T07:36:00Z,29.5150,-94.5133,0.0,4.2,49.0,5.3,'11111222,11111222,11111222' 
TCOON,ioos:station:TCOON:518:1,2017-10-01T07:42:00Z,29.5150,-94.5133,0.0,4.6,38.0,5.5,'11111222,11111222,11111222' 
TCOON,ioos:station:TCOON:518:1,2017-10-01T07:48:00Z,29.5150,-94.5133,0.0,4.2,40.0,4.9,'11111222,11111222,11111222' 
TCOON,ioos:station:TCOON:518:1,2017-10-01T07:54:00Z,29.5150,-94.5133,0.0,4.3,41.0,5.2,'11111222,11111222,11111222' 
TCOON,ioos:station:TCOON:518:1,2017-10-01T08:00:00Z,29.5150,-94.5133,0.0,4.4,43.0,5.2,'11111222,11111222,11111222' 
TCOON,ioos:station:TCOON:518:1,2017-10-01T08:06:00Z,29.5150,-94.5133,0.0,4.4,42.0,5.3,'11111222,11111222,11111222' 
TCOON,ioos:station:TCOON:518:1,2017-10-01T08:12:00Z,29.5150,-94.5133,0.0,4.6,37.0,5.3,'11111222,11111222,11111222' 
TCOON,ioos:station:TCOON:518:1,2017-10-01T08:18:00Z,29.5150,-94.5133,0.0,4.6,37.0,5.3,'1111122,1111122,1111122' 
TCOON,ioos:station:TCOON:518:1,2017-10-01T08:24:00Z,29.5150,-94.5133,0.0,4.9,31.0,5.8,'11111222,11111222,11111222' 
TCOON,ioos:station:TCOON:518:1,2017-10-01T08:30:00Z,29.5150,-94.5133,0.0,4.6,33.0,5.3,'11111222,11111222,11111222' 
TCOON,ioos:station:TCOON:518:1,2017-10-01T08:36:00Z,29.5150,-94.5133,0.0,4.4,32.0,5.1,'11111222,11111222,11111222' 
TCOON,ioos:station:TCOON:518:1,2017-10-01T08:42:00Z,29.5150,-94.5133,0.0,4.3,38.0,5.0,'11111222,11111222,11111222' 
TCOON,ioos:station:TCOON:518:1,2017-10-01T08:48:00Z,29.5150,-94.5133,0.0,4.5,39.0,5.6,'11111222,11111222,11111222' 
TCOON,ioos:station:TCOON:518:1,2017-10-01T08:54:00Z,29.5150,-94.5133,0.0,5.0,40.0,6.1,'11111222,11111222,11111222' 
TCOON,ioos:station:TCOON:518:1,2017-10-01T09:00:00Z,29.5150,-94.5133,0.0,5.3,43.0,6.3,'11111222,11111222,11111222' 
TCOON,ioos:station:TCOON:518:1,2017-10-01T09:06:00Z,29.5150,-94.5133,0.0,5.3,45.0,5.9,'11111222,11111222,11111222' 
TCOON,ioos:station:TCOON:518:1,2017-10-01T09:12:00Z,29.5150,-94.5133,0.0,5.4,42.0,6.5,'11111222,11111222,11111222' 
TCOON,ioos:station:TCOON:518:1,2017-10-01T09:18:00Z,29.5150,-94.5133,0.0,5.4,42.0,6.5,'1111122,1111122,1111122' 
TCOON,ioos:station:TCOON:518:1,2017-10-01T09:24:00Z,29.5150,-94.5133,0.0,5.1,46.0,5.9,'11111222,11111222,11111222' 
TCOON,ioos:station:TCOON:518:1,2017-10-01T09:30:00Z,29.5150,-94.5133,0.0,5.0,46.0,5.7,'11111222,11111222,11111222' 
TCOON,ioos:station:TCOON:518:1,2017-10-01T09:36:00Z,29.5150,-94.5133,0.0,5.3,43.0,6.0,'11111222,11111222,11111222' 
TCOON,ioos:station:TCOON:518:1,2017-10-01T09:42:00Z,29.5150,-94.5133,0.0,4.9,38.0,5.8,'11111222,11111222,11111222' 
TCOON,ioos:station:TCOON:518:1,2017-10-01T09:48:00Z,29.5150,-94.5133,0.0,4.8,30.0,5.7,'11111222,11111222,11111222' 
TCOON,ioos:station:TCOON:518:1,2017-10-01T09:54:00Z,29.5150,-94.5133,0.0,4.5,30.0,5.3,'11111222,11111222,11111222' 
TCOON,ioos:station:TCOON:518:1,2017-10-01T10:00:00Z,29.5150,-94.5133,0.0,4.4,30.0,5.5,'11111222,11111222,11111222' 
TCOON,ioos:station:TCOON:518:1,2017-10-01T10:06:00Z,29.5150,-94.5133,0.0,4.3,33.0,5.0,'11111222,11111222,11111222' 
TCOON,ioos:station:TCOON:518:1,2017-10-01T10:12:00Z,29.5150,-94.5133,0.0,4.9,34.0,5.4,'11111222,11111222,11111222' 
TCOON,ioos:station:TCOON:518:1,2017-10-01T10:18:00Z,29.5150,-94.5133,0.0,4.9,34.0,5.4,'1111122,1111122,1111122' 
TCOON,ioos:station:TCOON:518:1,2017-10-01T10:24:00Z,29.5150,-94.5133,0.0,4.6,36.0,5.2,'11111222,11111222,11111222' 
TCOON,ioos:station:TCOON:518:1,2017-10-01T10:30:00Z,29.5150,-94.5133,0.0,4.6,31.0,5.4,'11111222,11111222,11111222' 
TCOON,ioos:station:TCOON:518:1,2017-10-01T10:36:00Z,29.5150,-94.5133,0.0,4.8,29.0,5.4,'11111222,11111222,11111222' 
TCOON,ioos:station:TCOON:518:1,2017-10-01T10:42:00Z,29.5150,-94.5133,0.0,5.1,29.0,5.8,'11111222,11111222,11111222' 
TCOON,ioos:station:TCOON:518:1,2017-10-01T10:48:00Z,29.5150,-94.5133,0.0,5.3,34.0,6.4,'11111222,11111222,11111222' 
TCOON,ioos:station:TCOON:518:1,2017-10-01T10:54:00Z,29.5150,-94.5133,0.0,5.1,31.0,6.2,'11111222,11111222,11111222' 
TCOON,ioos:station:TCOON:518:1,2017-10-01T11:00:00Z,29.5150,-94.5133,0.0,5.3,35.0,6.3,'11111222,11111222,11111222' 
TCOON,ioos:station:TCOON:518:1,2017-10-01T11:06:00Z,29.5150,-94.5133,0.0,5.2,26.0,6.5,'11111222,11111222,11111222' 
TCOON,ioos:station:TCOON:518:1,2017-10-01T11:12:00Z,29.5150,-94.5133,0.0,5.2,27.0,6.0,'11111222,11111222,11111222' 
TCOON,ioos:station:TCOON:518:1,2017-10-01T11:18:00Z,29.5150,-94.5133,0.0,5.2,27.0,6.0,'1111122,1111122,1111122' 
TCOON,ioos:station:TCOON:518:1,2017-10-01T11:24:00Z,29.5150,-94.5133,0.0,5.1,30.0,5.9,'11111222,11111222,11111222' 
TCOON,ioos:station:TCOON:518:1,2017-10-01T11:30:00Z,29.5150,-94.5133,0.0,5.0,36.0,6.1,'11111222,11111222,11111222' 
TCOON,ioos:station:TCOON:518:1,2017-10-01T11:36:00Z,29.5150,-94.5133,0.0,5.3,35.0,6.3,'11111222,11111222,11111222' 
TCOON,ioos:station:TCOON:518:1,2017-10-01T11:42:00Z,29.5150,-94.5133,0.0,5.6,35.0,6.2,'11111222,11111222,11111222' 
TCOON,ioos:station:TCOON:518:1,2017-10-01T11:48:00Z,29.5150,-94.5133,0.0,4.9,39.0,5.9,'11111222,11111222,11111222' 
TCOON,ioos:station:TCOON:518:1,2017-10-01T11:54:00Z,29.5150,-94.5133,0.0,5.0,40.0,6.0,'11111222,11111222,11111222' 
TCOON,ioos:station:TCOON:518:1,2017-10-01T12:00:00Z,29.5150,-94.5133,0.0,5.1,43.0,5.6,'11111222,11111222,11111222' 
TCOON,ioos:station:TCOON:518:1,2017-10-01T12:06:00Z,29.5150,-94.5133,0.0,4.8,40.0,5.7,'11111222,11111222,11111222' 
TCOON,ioos:station:TCOON:518:1,2017-10-01T12:12:00Z,29.5150,-94.5133,0.0,5.1,37.0,5.8,'11111222,11111222,11111222' 
TCOON,ioos:station:TCOON:518:1,2017-10-01T12:18:00Z,29.5150,-94.5133,0.0,5.1,37.0,5.8,'1111122,1111122,1111122' 
TCOON,ioos:station:TCOON:518:1,2017-10-01T12:24:00Z,29.5150,-94.5133,0.0,4.9,37.0,5.5,'11111222,11111222,11111222' 
TCOON,ioos:station:TCOON:518:1,2017-10-01T12:30:00Z,29.5150,-94.5133,0.0,5.0,34.0,5.8,'11111222,11111222,11111222' 
TCOON,ioos:station:TCOON:518:1,2017-10-01T12:42:00Z,29.5150,-94.5133,0.0,5.2,36.0,6.2,'11111222,11111222,11111222' 
TCOON,ioos:station:TCOON:518:1,2017-10-01T12:48:00Z,29.5150,-94.5133,0.0,5.2,35.0,6.0,'11111222,11111222,11111222' 
TCOON,ioos:station:TCOON:518:1,2017-10-01T12:54:00Z,29.5150,-94.5133,0.0,5.4,39.0,6.1,'11111222,11111222,11111222' 
TCOON,ioos:station:TCOON:518:1,2017-10-01T13:00:00Z,29.5150,-94.5133,0.0,5.3,37.0,5.8,'11111222,11111222,11111222' 
TCOON,ioos:station:TCOON:518:1,2017-10-01T13:06:00Z,29.5150,-94.5133,0.0,4.9,42.0,5.6,'11111222,11111222,11111222' 
TCOON,ioos:station:TCOON:518:1,2017-10-01T13:12:00Z,29.5150,-94.5133,0.0,5.2,42.0,5.7,'11111222,11111222,11111222' 
TCOON,ioos:station:TCOON:518:1,2017-10-01T13:18:00Z,29.5150,-94.5133,0.0,5.2,42.0,5.7,'1111122,1111122,1111122' 
TCOON,ioos:station:TCOON:518:1,2017-10-01T13:24:00Z,29.5150,-94.5133,0.0,4.5,47.0,5.2,'11111222,11111222,11111222' 
TCOON,ioos:station:TCOON:518:1,2017-10-01T13:30:00Z,29.5150,-94.5133,0.0,4.4,45.0,5.3,'11111222,11111222,11111222' 
TCOON,ioos:station:TCOON:518:1,2017-10-01T13:36:00Z,29.5150,-94.5133,0.0,4.3,45.0,4.8,'11111222,11111222,11111222' 
TCOON,ioos:station:TCOON:518:1,2017-10-01T13:42:00Z,29.5150,-94.5133,0.0,4.1,47.0,5.0,'11111222,11111222,11111222' 
TCOON,ioos:station:TCOON:518:1,2017-10-01T13:48:00Z,29.5150,-94.5133,0.0,4.4,46.0,4.9,'11111222,11111222,11111222' 
TCOON,ioos:station:TCOON:518:1,2017-10-01T13:54:00Z,29.5150,-94.5133,0.0,4.3,49.0,5.0,'11111222,11111222,11111222' 
TCOON,ioos:station:TCOON:518:1,2017-10-01T14:00:00Z,29.5150,-94.5133,0.0,4.4,47.0,5.2,'11111222,11111222,11111222' 
TCOON,ioos:station:TCOON:518:1,2017-10-01T14:06:00Z,29.5150,-94.5133,0.0,4.4,47.0,5.0,'11111222,11111222,11111222' 
TCOON,ioos:station:TCOON:518:1,2017-10-01T14:12:00Z,29.5150,-94.5133,0.0,4.1,50.0,4.8,'11111222,11111222,11111222' 
TCOON,ioos:station:TCOON:518:1,2017-10-01T14:18:00Z,29.5150,-94.5133,0.0,4.1,50.0,4.8,'1111122,1111122,1111122' 
TCOON,ioos:station:TCOON:518:1,2017-10-01T14:24:00Z,29.5150,-94.5133,0.0,3.2,57.0,4.1,'11111222,11111222,11111222' 
TCOON,ioos:station:TCOON:518:1,2017-10-01T14:30:00Z,29.5150,-94.5133,0.0,3.0,59.0,3.6,'11111222,11111222,11111222' 
TCOON,ioos:station:TCOON:518:1,2017-10-01T14:36:00Z,29.5150,-94.5133,0.0,3.2,64.0,4.0,'11111222,11111222,11111222' 
TCOON,ioos:station:TCOON:518:1,2017-10-01T14:42:00Z,29.5150,-94.5133,0.0,2.9,62.0,3.7,'11111222,11111222,11111222' 
TCOON,ioos:station:TCOON:518:1,2017-10-01T14:48:00Z,29.5150,-94.5133,0.0,2.6,51.0,3.4,'11111222,11111222,11111222' 
TCOON,ioos:station:TCOON:518:1,2017-10-01T14:54:00Z,29.5150,-94.5133,0.0,3.1,48.0,3.4,'11111222,11111222,11111222' 
TCOON,ioos:station:TCOON:518:1,2017-10-01T15:00:00Z,29.5150,-94.5133,0.0,2.5,46.0,3.2,'11111222,11111222,11111222' 
TCOON,ioos:station:TCOON:518:1,2017-10-01T15:06:00Z,29.5150,-94.5133,0.0,2.7,51.0,3.6,'11111222,11111222,11111222' 
TCOON,ioos:station:TCOON:518:1,2017-10-01T15:12:00Z,29.5150,-94.5133,0.0,2.7,48.0,3.3,'11111222,11111222,11111222' 
TCOON,ioos:station:TCOON:518:1,2017-10-01T15:18:00Z,29.5150,-94.5133,0.0,2.7,48.0,3.3,'1111122,1111122,1111122' 
TCOON,ioos:station:TCOON:518:1,2017-10-01T15:24:00Z,29.5150,-94.5133,0.0,2.5,103.0,3.9,'11111222,11111222,11111222' 
TCOON,ioos:station:TCOON:518:1,2017-10-01T15:30:00Z,29.5150,-94.5133,0.0,3.2,103.0,3.8,'11111222,11111222,11111222' 
TCOON,ioos:station:TCOON:518:1,2017-10-01T15:36:00Z,29.5150,-94.5133,0.0,3.6,107.0,4.2,'11111222,11111222,11111222' 
TCOON,ioos:station:TCOON:518:1,2017-10-01T15:42:00Z,29.5150,-94.5133,0.0,3.1,103.0,4.2,'11111222,11111222,11111222' 
TCOON,ioos:station:TCOON:518:1,2017-10-01T15:48:00Z,29.5150,-94.5133,0.0,3.4,96.0,3.9,'11111222,11111222,11111222' 
TCOON,ioos:station:TCOON:518:1,2017-10-01T15:54:00Z,29.5150,-94.5133,0.0,2.9,105.0,4.0,'11111222,11111222,11111222' 
TCOON,ioos:station:TCOON:518:1,2017-10-01T16:00:00Z,29.5150,-94.5133,0.0,3.0,88.0,3.9,'11111222,11111222,11111222' 
TCOON,ioos:station:TCOON:518:1,2017-10-01T16:06:00Z,29.5150,-94.5133,0.0,3.5,99.0,4.5,'11111222,11111222,11111222' 
TCOON,ioos:station:TCOON:518:1,2017-10-01T16:12:00Z,29.5150,-94.5133,0.0,2.6,102.0,3.4,'11111222,11111222,11111222' 
TCOON,ioos:station:TCOON:518:1,2017-10-01T16:18:00Z,29.5150,-94.5133,0.0,2.6,102.0,3.4,'1111122,1111122,1111122' 
TCOON,ioos:station:TCOON:518:1,2017-10-01T16:24:00Z,29.5150,-94.5133,0.0,3.2,97.0,4.4,'11111222,11111222,11111222' 
TCOON,ioos:station:TCOON:518:1,2017-10-01T16:30:00Z,29.5150,-94.5133,0.0,3.5,94.0,3.8,'11111222,11111222,11111222' 
TCOON,ioos:station:TCOON:518:1,2017-10-01T16:36:00Z,29.5150,-94.5133,0.0,3.6,101.0,4.2,'11111222,11111222,11111222' 
TCOON,ioos:station:TCOON:518:1,2017-10-01T16:42:00Z,29.5150,-94.5133,0.0,3.3,97.0,4.1,'11111222,11111222,11111222' 
TCOON,ioos:station:TCOON:518:1,2017-10-01T16:48:00Z,29.5150,-94.5133,0.0,3.1,101.0,4.7,'11111222,11111222,11111222' 
TCOON,ioos:station:TCOON:518:1,2017-10-01T16:54:00Z,29.5150,-94.5133,0.0,4.0,115.0,4.6,'11111222,11111222,11111222' 
TCOON,ioos:station:TCOON:518:1,2017-10-01T17:00:00Z,29.5150,-94.5133,0.0,3.3,103.0,4.2,'11111222,11111222,11111222' 
TCOON,ioos:station:TCOON:518:1,2017-10-01T17:06:00Z,29.5150,-94.5133,0.0,4.3,119.0,5.1,'11111222,11111222,11111222' 
TCOON,ioos:station:TCOON:518:1,2017-10-01T17:12:00Z,29.5150,-94.5133,0.0,4.6,113.0,5.1,'11111222,11111222,11111222' 
TCOON,ioos:station:TCOON:518:1,2017-10-01T17:18:00Z,29.5150,-94.5133,0.0,4.6,113.0,5.1,'1111122,1111122,1111122' 
TCOON,ioos:station:TCOON:518:1,2017-10-01T17:24:00Z,29.5150,-94.5133,0.0,4.3,113.0,5.0,'11111222,11111222,11111222' 
TCOON,ioos:station:TCOON:518:1,2017-10-01T17:30:00Z,29.5150,-94.5133,0.0,3.0,106.0,4.9,'11111222,11111222,11111222' 
TCOON,ioos:station:TCOON:518:1,2017-10-01T17:36:00Z,29.5150,-94.5133,0.0,2.8,111.0,4.2,'11111222,11111222,11111222' 
TCOON,ioos:station:TCOON:518:1,2017-10-01T17:42:00Z,29.5150,-94.5133,0.0,3.9,120.0,4.5,'11111222,11111222,11111222' 
TCOON,ioos:station:TCOON:518:1,2017-10-01T17:48:00Z,29.5150,-94.5133,0.0,4.0,116.0,4.5,'11111222,11111222,11111222' 
TCOON,ioos:station:TCOON:518:1,2017-10-01T17:54:00Z,29.5150,-94.5133,0.0,4.2,120.0,5.3,'11111222,11111222,11111222' 
TCOON,ioos:station:TCOON:518:1,2017-10-01T18:00:00Z,29.5150,-94.5133,0.0,3.7,115.0,4.8,'11111222,11111222,11111222' 
TCOON,ioos:station:TCOON:518:1,2017-10-01T18:06:00Z,29.5150,-94.5133,0.0,3.6,117.0,4.6,'11111222,11111222,11111222' 
TCOON,ioos:station:TCOON:518:1,2017-10-01T18:12:00Z,29.5150,-94.5133,0.0,3.8,117.0,5.3,'11111222,11111222,11111222' 
TCOON,ioos:station:TCOON:518:1,2017-10-01T18:18:00Z,29.5150,-94.5133,0.0,3.8,117.0,5.3,'1111122,1111122,1111122' 
TCOON,ioos:station:TCOON:518:1,2017-10-01T18:24:00Z,29.5150,-94.5133,0.0,3.1,125.0,4.9,'11111222,11111222,11111222' 
TCOON,ioos:station:TCOON:518:1,2017-10-01T18:30:00Z,29.5150,-94.5133,0.0,4.1,115.0,4.9,'11111222,11111222,11111222' 
TCOON,ioos:station:TCOON:518:1,2017-10-01T18:36:00Z,29.5150,-94.5133,0.0,4.0,121.0,4.9,'11111222,11111222,11111222' 
TCOON,ioos:station:TCOON:518:1,2017-10-01T18:42:00Z,29.5150,-94.5133,0.0,4.1,126.0,4.8,'11111222,11111222,11111222' 
TCOON,ioos:station:TCOON:518:1,2017-10-01T18:48:00Z,29.5150,-94.5133,0.0,4.2,125.0,5.4,'11111222,11111222,11111222' 
TCOON,ioos:station:TCOON:518:1,2017-10-01T18:54:00Z,29.5150,-94.5133,0.0,4.4,126.0,5.3,'11111222,11111222,11111222' 
TCOON,ioos:station:TCOON:518:1,2017-10-01T19:00:00Z,29.5150,-94.5133,0.0,4.8,126.0,5.5,'11111222,11111222,11111222' 
TCOON,ioos:station:TCOON:518:1,2017-10-01T19:06:00Z,29.5150,-94.5133,0.0,4.8,132.0,5.7,'11111222,11111222,11111222' 
TCOON,ioos:station:TCOON:518:1,2017-10-01T19:12:00Z,29.5150,-94.5133,0.0,4.5,122.0,5.7,'11111222,11111222,11111222' 
TCOON,ioos:station:TCOON:518:1,2017-10-01T19:18:00Z,29.5150,-94.5133,0.0,4.5,122.0,5.7,'1111122,1111122,1111122' 
TCOON,ioos:station:TCOON:518:1,2017-10-01T19:24:00Z,29.5150,-94.5133,0.0,4.7,134.0,5.6,'11111222,11111222,11111222' 
TCOON,ioos:station:TCOON:518:1,2017-10-01T19:30:00Z,29.5150,-94.5133,0.0,4.8,128.0,5.6,'11111222,11111222,11111222' 
TCOON,ioos:station:TCOON:518:1,2017-10-01T19:36:00Z,29.5150,-94.5133,0.0,4.9,128.0,5.7,'11111222,11111222,11111222' 
TCOON,ioos:station:TCOON:518:1,2017-10-01T19:42:00Z,29.5150,-94.5133,0.0,4.4,128.0,5.3,'11111222,11111222,11111222' 
TCOON,ioos:station:TCOON:518:1,2017-10-01T19:48:00Z,29.5150,-94.5133,0.0,4.2,129.0,5.3,'11111222,11111222,11111222' 
TCOON,ioos:station:TCOON:518:1,2017-10-01T19:54:00Z,29.5150,-94.5133,0.0,4.4,120.0,5.3,'11111222,11111222,11111222' 
TCOON,ioos:station:TCOON:518:1,2017-10-01T20:00:00Z,29.5150,-94.5133,0.0,4.6,134.0,5.6,'11111222,11111222,11111222' 
TCOON,ioos:station:TCOON:518:1,2017-10-01T20:06:00Z,29.5150,-94.5133,0.0,4.3,126.0,5.1,'11111222,11111222,11111222' 
TCOON,ioos:station:TCOON:518:1,2017-10-01T20:12:00Z,29.5150,-94.5133,0.0,4.1,139.0,5.3,'11111222,11111222,11111222' 
TCOON,ioos:station:TCOON:518:1,2017-10-01T20:18:00Z,29.5150,-94.5133,0.0,4.1,139.0,5.3,'1111122,1111122,1111122' 
TCOON,ioos:station:TCOON:518:1,2017-10-01T20:24:00Z,29.5150,-94.5133,0.0,4.4,133.0,5.4,'11111222,11111222,11111222' 
TCOON,ioos:station:TCOON:518:1,2017-10-01T20:30:00Z,29.5150,-94.5133,0.0,4.6,131.0,5.5,'11111222,11111222,11111222' 
TCOON,ioos:station:TCOON:518:1,2017-10-01T20:36:00Z,29.5150,-94.5133,0.0,4.6,131.0,5.7,'11111222,11111222,11111222' 